Starlink 1738

operational
NORAD ID: 46336 Int'l Des: 2020-062 Owner: SPXS Country: US Constellation: starlink
LEOCIRCULAR

About Starlink 1738

Description loading...

Live Position

Loading 3D Globe...

Upcoming Passes

Altitude History

Altitude vs Time

uPlot chart will show altitude changes over time

Two-Line Element Set

1 46336U 20062M 25257.60830400 .00091697 00000-0 25866-2 0 9995
2 46336 53.0527 57.2981 0006751 231.3479 128.6919 15.35635136278186
Epoch: Sep 14, 2025 • Age: 15 hours

Current Status

Altitude 463.0 km
Velocity 7.64 km/s
Sub-Earth Point -28.81°S, 179.75°W
Launch Date Sep 3, 2020
Age 5 years
Type internet

Technical Details

Classification Payload
Mass 260.00 kg
Dry Mass 248.00 kg
Total Mass 260.00 kg
Length 0.20 m
Diameter 2.80 m
Span 9.00 m
Shape Box + pan
Manufacturer SPXS
Bus Type Starlink
Phase Status In Orbit
Owner/State SPXS/US

Large Constellations

Loading constellations...